IGO189 VOMM-VOBL

Flight info

Callsign IGO189
Flight time N/A
Altitude 20000
Route MMV W117 BIA
Aircraft A20N/M-SDE2E3FGHIRWXY/LB1

Departure

Time 2026-04-23 14:30
Airport Chennai International Airport (VOMM)

Arrival

Time N/A
Airport Kempegowda International Airport Bengaluru (VOBL)
Time Latitude Longitude Altitude Speed Heading
2026-04-23 14:06 12.98489 80.16673 58 ft 0 kts 159°
2026-04-23 14:17 12.98494 80.16671 58 ft 3 kts 159°
2026-04-23 14:17 12.98512 80.16664 55 ft 3 kts 159°
2026-04-23 14:18 12.98530 80.16658 51 ft 3 kts 182°
2026-04-23 14:18 12.98549 80.16664 52 ft 3 kts 223°
2026-04-23 14:18 12.98556 80.16672 51 ft 0 kts 246°
2026-04-23 14:22 12.98552 80.16662 55 ft 4 kts 249°
2026-04-23 14:22 12.98538 80.16622 56 ft 6 kts 250°
2026-04-23 14:23 12.98523 80.16580 54 ft 6 kts 250°
2026-04-23 14:23 12.98507 80.16539 56 ft 6 kts 249°
2026-04-23 14:23 12.98493 80.16500 56 ft 0 kts 249°
2026-04-23 14:24 12.98485 80.16478 53 ft 7 kts 249°
2026-04-23 14:24 12.98462 80.16414 54 ft 12 kts 250°
2026-04-23 14:24 12.98427 80.16316 53 ft 16 kts 250°
2026-04-23 14:24 12.98389 80.16209 53 ft 16 kts 250°
2026-04-23 14:25 12.98350 80.16104 54 ft 16 kts 249°
2026-04-23 14:25 12.98310 80.15998 53 ft 16 kts 248°
2026-04-23 14:25 12.98294 80.15897 58 ft 15 kts 284°
2026-04-23 14:25 12.98326 80.15782 58 ft 17 kts 285°
2026-04-23 14:26 12.98357 80.15668 58 ft 16 kts 285°
2026-04-23 14:26 12.98383 80.15570 59 ft 0 kts 285°
2026-04-23 14:27 12.98387 80.15556 53 ft 5 kts 285°
2026-04-23 14:27 12.98403 80.15498 54 ft 12 kts 285°
2026-04-23 14:27 12.98461 80.15442 54 ft 12 kts 10°
2026-04-23 14:28 12.98474 80.15453 53 ft 0 kts 69°
2026-04-23 14:29 12.98475 80.15456 54 ft 5 kts 69°
2026-04-23 14:29 12.98549 80.15655 53 ft 61 kts 69°
2026-04-23 14:30 12.98780 80.16269 55 ft 121 kts 70°
2026-04-23 14:30 12.99142 80.17246 55 ft 169 kts 71°
2026-04-23 14:30 12.99619 80.18406 385 ft 177 kts 65°
2026-04-23 14:30 13.00439 80.19337 951 ft 176 kts 43°
2026-04-23 14:31 13.01174 80.20329 1482 ft 173 kts 65°
2026-04-23 14:31 13.01719 80.21463 1896 ft 190 kts 69°
2026-04-23 14:31 13.02162 80.22844 2141 ft 217 kts 77°
2026-04-23 14:31 13.02557 80.24448 2328 ft 247 kts 78°
2026-04-23 14:32 13.02977 80.26229 2752 ft 263 kts 77°
2026-04-23 14:32 13.03777 80.27927 3394 ft 270 kts 52°
2026-04-23 14:32 13.05276 80.29077 4150 ft 274 kts 25°
2026-04-23 14:32 13.07157 80.29412 4888 ft 280 kts 358°
2026-04-23 14:33 13.09030 80.28839 5598 ft 285 kts 331°
2026-04-23 14:33 13.10479 80.27464 6338 ft 289 kts 305°
2026-04-23 14:33 13.11251 80.25580 7030 ft 293 kts 284°
2026-04-23 14:33 13.11622 80.23513 7732 ft 296 kts 279°
2026-04-23 14:34 13.11916 80.21408 8452 ft 299 kts 279°
2026-04-23 14:34 13.12210 80.19279 9157 ft 303 kts 280°
2026-04-23 14:34 13.12507 80.17124 9867 ft 307 kts 280°
2026-04-23 14:34 13.12815 80.14900 10261 ft 323 kts 280°
2026-04-23 14:35 13.13140 80.12553 10521 ft 342 kts 280°
2026-04-23 14:35 13.13484 80.10074 10749 ft 359 kts 279°
2026-04-23 14:35 13.13840 80.07487 11100 ft 370 kts 279°
2026-04-23 14:35 13.14201 80.04847 11614 ft 375 kts 279°
2026-04-23 14:36 13.14563 80.02187 12182 ft 378 kts 279°
2026-04-23 14:36 13.14929 79.99500 12769 ft 381 kts 279°
2026-04-23 14:36 13.15292 79.96839 13374 ft 383 kts 279°
2026-04-23 14:36 13.15663 79.94118 13923 ft 386 kts 279°
2026-04-23 14:37 13.16036 79.91380 14457 ft 388 kts 279°
2026-04-23 14:37 13.16412 79.88626 14998 ft 390 kts 279°
2026-04-23 14:37 13.16789 79.85859 15540 ft 392 kts 279°
2026-04-23 14:37 13.17167 79.83083 16086 ft 394 kts 279°
2026-04-23 14:38 13.17547 79.80283 16641 ft 396 kts 279°
2026-04-23 14:38 13.17928 79.77487 17201 ft 397 kts 279°
2026-04-23 14:38 13.18312 79.74666 17723 ft 399 kts 279°
2026-04-23 14:38 13.18695 79.71844 18205 ft 401 kts 278°
2026-04-23 14:39 13.19081 79.68999 18621 ft 403 kts 278°
2026-04-23 14:39 13.19463 79.66186 19034 ft 404 kts 278°
2026-04-23 14:39 13.19850 79.63330 19455 ft 404 kts 278°
2026-04-23 14:39 13.20237 79.60471 19726 ft 406 kts 278°
2026-04-23 14:40 13.20630 79.57566 19785 ft 416 kts 278°
2026-04-23 14:40 13.21032 79.54591 19792 ft 425 kts 278°
2026-04-23 14:40 13.21439 79.51582 19799 ft 427 kts 278°
2026-04-23 14:40 13.21845 79.48571 19800 ft 427 kts 278°
2026-04-23 14:41 13.22255 79.45534 19802 ft 427 kts 278°
2026-04-23 14:41 13.22662 79.42505 19791 ft 428 kts 277°
2026-04-23 14:41 13.23059 79.39473 19753 ft 429 kts 277°
2026-04-23 14:41 13.23435 79.36459 19704 ft 430 kts 277°
2026-04-23 14:42 13.23810 79.33405 19667 ft 431 kts 277°
2026-04-23 14:42 13.24085 79.31201 19667 ft 431 kts 277°